This is the latest recevied weather packets stored in our database for station/object DL6MAA-11. If no packets are shown the sender has not sent any weather packets the latest 10 day(s).
| Time | Temp. | Humidity | Pressure | Rain* | Wind** | Luminosity | Snow |
|---|---|---|---|---|---|---|---|
| 1777903916 | 22.78° C | 43% | 1009.2 hPa | 0 mm | - | 427 W/m² | - |
| 1777903616 | 22.78° C | 42% | 1009.2 hPa | 0 mm | - | 367 W/m² | - |
| 1777903324 | 22.22° C | 43% | 1009.2 hPa | 0 mm | - | 443 W/m² | - |
| 1777903030 | 22.22° C | 44% | 1009.4 hPa | 0 mm | - | 376 W/m² | - |
| 1777902732 | 22.22° C | 42% | 1009.4 hPa | 0 mm | - | 327 W/m² | - |
| 1777902415 | 21.67° C | 43% | 1009.4 hPa | 0 mm | - | 267 W/m² | - |
| 1777902120 | 21.67° C | 43% | 1009.4 hPa | 0 mm | - | 241 W/m² | - |
| 1777901830 | 22.22° C | 42% | 1009.4 hPa | 0 mm | - | 230 W/m² | - |
| 1777901526 | 21.67° C | 43% | 1009.4 hPa | 0 mm | - | 276 W/m² | - |
| 1777901214 | 22.22° C | 45% | 1009.5 hPa | 0 mm | - | 241 W/m² | - |
| 1777900918 | 21.67° C | 44% | 1009.5 hPa | 0 mm | - | 276 W/m² | - |
| 1777900621 | 21.67° C | 45% | 1009.5 hPa | 0 mm | - | 272 W/m² | - |
| 1777900330 | 21.67° C | 44% | 1010.2 hPa | 0 mm | - | 211 W/m² | - |
| 1777900012 | 21.67° C | 43% | 1010.2 hPa | 0 mm | - | 214 W/m² | - |
| 1777899715 | 21.67° C | 44% | 1010.2 hPa | 0 mm | - | 243 W/m² | - |
| 1777899426 | 22.22° C | 43% | 1010.4 hPa | 0 mm | - | 255 W/m² | - |
| 1777899128 | 22.22° C | 44% | 1010.4 hPa | 0 mm | - | 397 W/m² | - |
| 1777898819 | 22.22° C | 43% | 1010.4 hPa | 0 mm | - | 236 W/m² | - |
| 1777898527 | 22.78° C | 42% | 1010.6 hPa | 0 mm | - | 482 W/m² | - |
| 1777898212 | 22.78° C | 42% | 1010.6 hPa | 0 mm | - | 573 W/m² | - |
| 1777897929 | 22.78° C | 44% | 1010.6 hPa | 0 mm | - | 482 W/m² | - |
| 1777897626 | 22.22° C | 42% | 1009.7 hPa | 0 mm | - | 417 W/m² | - |
| 1777897322 | 22.22° C | 44% | 1009.7 hPa | 0 mm | - | 429 W/m² | - |
| 1777897018 | 21.67° C | 45% | 1009.7 hPa | 0 mm | - | 434 W/m² | - |
| 1777896714 | 21.67° C | 44% | 1010.6 hPa | 0 mm | - | 322 W/m² | - |
* Rain since midnight (hover to see other rain measurements)
** Current wind speed in m/s (hover to see current wind gust speed)